Theta_e
321 328 332 333 332 332 334 336 337 336 337 338 339 339 339 339 339 338 339 337 336 335 334 333 331 334 337 338 337 337 334 331 335 336 337 336 334 337 337 338 341 343 341
316 325 329 335 335 334 335 335 336 337 337 338 338 338 339 338 338 338 338 338 338 337 335 335 334 332 332 334 336 334 334 331 329 335 339 339 337 336 336 336 337 338 336
314 325 329 332 333 333 333 333 334 336 337 337 338 338 337 337 338 337 337 337 337 337 337 336 335 334 334 334 333 333 330 332 333 332 332 338 338 335 336 336 337 336 338
312 323 326 328 329 330 329 329 330 331 332 333 334 334 334 334 333 333 334 334 335 335 336 336 335 335 334 332 334 333 323 327 330 334 335 335 337 335 334 335 335 336 336
313 319 324 323 324 325 326 326 326 327 327 328 329 329 329 329 328 329 329 331 331 331 332 334 335 334 333 333 334 332 326 322 320 327 331 334 335 335 335 333 337 335 335
310 315 319 320 321 322 322 322 322 322 323 324 325 324 324 324 324 324 325 326 326 327 329 330 332 331 333 333 334 333 331 328 328 328 324 324 329 330 334 338 337 332 332
309 309 313 316 317 317 317 316 317 317 316 317 317 318 318 318 318 319 319 320 320 321 322 323 324 324 327 330 331 331 330 330 332 332 328 327 326 324 331 336 338 338 330
306 306 308 307 310 310 311 311 311 311 311 311 311 312 312 313 314 316 316 317 317 318 318 320 321 322 324 326 328 329 329 329 332 333 333 329 327 326 323 334 336 336 335
304 305 306 306 305 303 306 306 306 307 307 308 306 306 306 307 308 311 312 312 314 314 315 316 317 318 319 321 323 325 326 328 331 332 332 333 332 328 332 331 330 335 336
301 303 304 304 303 303 301 301 302 302 301 302 302 300 300 300 301 302 304 304 305 306 307 309 311 313 314 313 317 319 322 324 324 327 329 332 332 332 334 333 333 333 335
300 299 300 301 301 300 300 298 298 297 297 297 296 296 297 297 297 297 297 297 298 299 300 301 302 304 305 305 307 311 315 318 319 324 325 326 328 327 330 333 333 333 333
298 297 297 297 297 297 297 297 296 296 295 294 294 295 295 295 295 295 296 296 296 296 297 298 298 298 298 299 302 303 306 308 312 317 320 321 322 322 323 327 330 332 333
296 295 295 295 295 296 295 295 295 295 294 294 293 293 294 295 294 295 294 294 294 294 294 295 295 295 296 296 297 298 299 300 304 308 312 314 316 317 320 321 323 328 331
296 295 294 294 294 294 294 294 294 293 293 293 292 292 293 293 293 293 293 293 293 293 293 293 293 294 294 295 295 295 296 297 298 300 303 306 307 308 312 316 320 322 326
295 294 293 293 293 293 293 293 293 292 292 292 291 290 291 291 291 292 292 292 292 291 291 292 292 292 293 293 294 294 294 295 296 297 298 298 299 301 304 309 315 319 323
294 293 292 292 292 292 292 292 292 291 291 291 290 289 289 289 290 290 291 291 290 290 290 291 291 291 291 292 292 293 293 294 294 295 295 295 296 297 300 304 310 316 320
293 292 291 291 291 291 291 291 291 291 290 290 290 289 288 288 288 289 290 290 289 289 290 290 290 290 290 291 291 291 292 292 292 292 293 294 295 296 298 302 303 306 311
292 291 290 290 291 291 291 291 290 290 290 289 289 288 288 287 287 288 289 289 288 288 289 289 289 289 289 289 290 290 290 290 291 292 293 294 294 295 296 297 299 302 306
291 291 290 290 290 290 290 290 290 290 289 289 288 288 287 287 287 287 288 287 287 288 288 288 288 288 288 289 289 289 289 290 291 291 292 293 295 297 300 304 308 309 311
291 290 290 290 289 290 290 290 290 290 289 289 288 287 286 286 286 286 287 287 287 287 287 287 287 287 288 288 288 288 289 289 290 292 293 295 296 295 303 300 299 303 307
290 290 290 289 289 290 290 290 290 289 289 288 287 287 286 285 285 285 286 286 286 286 286 287 287 287 287 287 287 288 288 291 291 292 292 290 291 292 295 294 294 294 298
290 290 289 288 288 288 288 288 287 288 288 287 287 287 286 285 285 285 285 285 285 285 286 286 286 286 286 286 287 287 290 290 292 289 288 291 290 291 291 291 290 291 293
290 289 289 288 287 287 287 287 287 288 288 288 287 286 285 285 284 284 284 284 284 284 285 285 285 285 285 285 286 286 288 288 288 288 288 288 290 289 289 289 290 290 290
290 289 288 287 287 286 285 286 286 287 287 286 286 285 285 284 284 284 284 284 284 284 284 284 284 284 284 285 285 285 286 286 287 288 287 288 288 288 289 289 289 289 289
290 288 287 287 286 285 285 285 286 286 285 285 285 285 284 284 284 284 284 283 283 283 284 284 284 284 284 284 284 285 285 285 285 286 287 288 288 287 288 288 288 288 288
289 288 287 286 286 285 285 284 284 284 284 284 284 284 284 284 284 283 283 283 283 283 283 283 283 283 283 283 283 284 284 285 285 286 286 286 287 286 286 286 287 287 287
Wind_Speed
23 28 18 5 6 8 11 15 16 15 15 15 15 16 17 18 18 18 18 18 18 18 19 19 18 17 17 17 17 17 16 14 14 13 13 9 8 7 6 6 7 8 9
19 31 28 19 19 16 17 17 18 20 19 16 16 17 19 19 18 18 18 18 17 17 17 17 17 17 16 16 16 17 17 14 12 14 12 10 8 7 5 5 5 6 6
20 30 25 28 26 24 22 21 21 22 20 22 22 22 21 20 20 19 19 19 18 17 16 16 15 15 15 15 15 14 14 15 13 12 12 9 8 8 7 6 5 3 3
15 22 23 24 24 23 22 21 21 20 19 20 20 21 21 21 21 20 22 21 21 20 20 18 15 14 14 14 14 13 12 11 11 13 9 8 7 8 7 6 5 3 0
10 15 20 22 21 21 21 22 21 22 21 21 21 20 21 21 21 22 23 23 22 21 21 20 19 16 14 13 13 12 11 11 10 10 8 7 7 9 8 6 5 2 3
8 10 18 19 19 21 21 22 22 21 22 23 23 22 22 22 21 22 23 23 22 22 22 23 22 17 17 14 13 12 12 11 10 8 8 8 8 9 10 10 7 5 6
9 9 12 17 19 20 21 20 21 21 21 20 21 20 21 21 20 21 21 20 20 20 20 20 19 18 15 12 12 12 12 12 11 8 7 7 6 10 10 11 10 9 8
7 8 9 13 17 18 19 20 20 20 20 20 19 19 19 19 19 18 18 18 18 19 19 18 17 17 16 15 14 13 13 14 11 13 8 9 9 10 9 9 10 10 11
8 9 9 9 10 14 17 18 18 18 18 17 17 16 17 17 17 16 16 17 16 16 17 17 16 15 15 14 14 14 13 13 12 13 12 11 9 14 13 12 10 10 11
9 9 9 9 9 10 12 15 16 17 17 17 17 17 17 17 18 19 18 18 18 17 17 17 16 16 15 16 15 15 12 11 11 11 12 12 13 15 14 14 14 12 10
9 10 10 10 9 9 10 13 13 15 17 18 16 18 16 16 17 16 19 19 19 19 19 19 19 18 16 15 17 16 13 12 14 10 9 14 16 16 15 16 15 15 15
8 10 10 10 9 8 9 9 11 12 14 16 17 16 15 15 17 17 17 20 19 21 20 20 20 19 19 17 16 16 13 15 13 13 12 17 19 17 16 16 16 17 17
8 9 9 9 9 10 11 10 11 11 12 14 19 18 17 15 16 15 17 19 19 20 20 19 19 20 20 19 18 17 17 16 15 15 16 19 23 21 19 19 18 18 17
9 8 8 9 10 10 11 11 11 13 13 15 16 19 16 16 17 18 19 19 20 22 21 22 21 21 19 18 18 19 19 19 19 20 19 20 24 24 23 22 21 21 20
9 9 9 9 9 11 10 10 11 12 12 13 15 17 17 15 16 15 16 16 16 18 18 19 19 20 21 20 19 19 20 20 20 20 22 23 25 26 25 24 23 23 22
9 9 8 9 10 10 10 10 9 10 10 11 11 14 14 14 15 14 14 14 15 17 17 17 18 18 19 20 21 21 21 22 22 23 24 25 25 25 26 25 24 23 23
9 9 8 8 8 8 8 8 9 8 8 9 10 12 14 14 14 14 13 15 17 18 18 18 18 19 19 19 20 21 22 22 24 26 27 26 26 26 24 22 23 24 23
11 9 8 7 7 7 8 7 7 8 8 9 10 10 13 14 15 14 14 14 17 16 16 17 19 21 21 22 23 23 23 24 24 25 26 25 26 26 25 24 24 22 22
12 10 9 8 7 6 5 6 6 8 8 8 9 10 13 13 14 13 12 14 16 15 16 17 19 19 23 24 24 25 27 25 25 26 24 24 24 23 22 20 16 15 19
12 11 9 7 6 5 4 4 5 5 6 6 8 10 12 12 13 13 13 14 15 15 16 18 19 20 20 23 26 27 25 29 24 21 19 19 19 19 16 17 19 17 15
13 12 9 7 6 5 4 3 3 4 5 5 7 10 10 12 13 13 13 14 15 16 18 18 19 20 22 23 24 27 25 21 19 18 11 20 23 22 18 17 19 21 20
15 12 10 8 6 6 5 4 3 4 3 5 7 9 9 12 13 13 14 15 15 17 17 17 18 20 20 20 17 24 7 19 3 24 29 14 20 20 19 19 25 24 23
17 15 12 9 7 6 5 4 3 2 4 4 9 10 12 13 13 13 13 14 15 15 15 17 17 17 19 19 16 11 6 5 22 17 23 28 16 18 27 28 24 24 24
20 16 13 10 8 6 5 4 4 4 6 8 9 11 13 12 12 12 12 13 14 15 16 16 16 18 18 19 18 16 19 24 9 11 17 23 30 29 25 22 25 27 27
21 18 14 12 9 6 4 3 3 3 5 8 10 12 13 12 12 12 12 14 15 15 16 18 18 18 19 20 20 19 20 22 23 18 16 17 23 26 28 26 28 30 28
21 19 15 13 9 6 4 2 2 4 7 9 10 12 12 14 14 13 14 16 16 17 18 20 20 21 22 22 23 23 22 19 19 19 13 19 21 27 28 28 28 28 28
Wind_Direction
354 13 22 57 98 67 69 76 70 69 69 68 68 68 66 62 64 63 60 57 54 51 48 46 46 44 41 40 38 39 43 46 48 57 61 50 59 62 65 67 60 75 82
347 14 9 79 81 81 71 69 66 65 63 65 64 65 64 63 60 58 56 54 52 51 47 44 43 42 39 37 34 35 38 45 46 54 54 47 43 49 43 44 38 77 81
17 25 23 55 61 60 59 56 60 62 61 62 63 64 63 61 59 56 53 50 46 43 43 40 39 38 36 34 31 29 32 32 37 45 41 54 41 47 46 24 17 38 65
17 26 35 46 54 57 59 57 59 63 62 60 61 60 58 58 56 54 50 45 42 39 38 36 34 31 28 27 26 24 20 19 26 30 26 29 32 28 31 27 17 345 232
31 34 43 46 52 55 58 57 56 56 58 60 58 58 55 54 52 51 49 46 42 39 36 32 33 30 25 21 17 12 13 15 23 8 4 12 15 11 11 3 8 347 316
46 43 47 50 53 55 55 56 57 56 54 54 54 54 52 51 49 46 45 43 41 38 34 32 31 32 27 22 17 9 357 3 10 359 354 344 351 342 1 359 328 289 276
54 50 53 55 53 54 54 55 55 55 55 56 55 53 52 50 49 46 42 39 37 34 31 29 27 25 23 20 16 6 358 354 350 337 341 337 319 321 348 346 336 290 271
64 67 61 46 55 56 58 58 57 57 56 55 53 51 50 48 45 44 41 36 32 30 26 25 23 23 19 14 10 6 359 354 346 332 347 333 311 323 322 332 328 318 268
63 62 66 66 60 37 59 59 56 55 53 53 50 49 45 43 38 40 37 32 27 23 18 15 13 12 11 5 360 1 4 9 2 340 333 330 325 325 330 319 310 321 278
65 61 56 58 57 61 54 53 53 53 49 49 43 41 45 37 37 30 31 27 22 19 14 8 4 360 4 359 348 353 1 1 346 333 337 320 326 339 328 318 314 304 302
62 59 55 59 55 54 52 45 43 47 46 42 37 38 35 33 29 26 21 24 22 20 15 12 7 3 6 359 351 353 4 341 336 326 316 309 311 319 329 330 311 303 298
68 57 55 56 59 65 64 57 49 44 46 42 37 33 33 29 26 23 12 14 16 16 11 7 4 3 2 354 349 351 343 332 324 314 306 304 302 309 313 308 316 311 297
92 78 71 64 63 63 58 54 49 44 42 35 33 31 26 25 20 16 12 11 11 7 5 2 1 358 352 349 343 339 334 330 321 312 303 302 299 301 303 303 304 298 302
104 96 84 71 64 64 64 58 51 47 41 37 31 29 25 22 17 14 11 8 7 3 358 358 354 349 345 342 338 333 330 325 319 313 305 300 296 304 301 298 295 295 295
125 104 85 80 73 67 68 63 57 51 46 40 34 29 28 22 15 11 8 6 2 358 355 351 347 343 339 336 333 330 325 320 316 311 307 304 304 303 302 300 295 292 288
124 105 95 83 77 76 73 68 65 56 49 45 37 30 26 23 14 8 3 359 355 352 347 344 341 338 335 332 327 324 320 317 313 308 305 303 300 299 300 299 296 293 290
128 118 103 90 87 84 79 74 65 61 55 47 38 27 24 19 12 6 359 356 352 348 344 341 339 336 332 329 323 320 319 314 308 305 302 299 298 299 300 294 292 293 292
139 131 117 108 98 88 79 78 70 58 49 42 32 23 17 12 8 4 358 353 346 344 343 342 340 337 334 330 325 322 318 311 307 304 300 298 295 291 292 293 296 292 290
149 139 126 117 103 97 89 78 66 50 43 35 25 18 11 7 4 1 353 348 346 344 344 342 339 337 332 329 324 319 315 312 305 299 299 298 296 294 294 295 293 299 304
159 148 138 124 111 99 84 80 66 45 35 24 19 10 6 360 356 356 349 346 345 342 341 340 336 334 331 327 323 318 316 304 297 297 304 309 314 311 309 317 322 318 298
165 159 149 131 105 101 86 86 66 23 15 10 7 1 357 354 351 351 346 344 344 341 337 335 334 333 332 333 327 326 317 305 309 300 334 320 305 306 311 309 314 316 314
169 163 155 140 118 96 84 66 53 359 350 344 349 348 348 348 346 346 343 341 339 333 331 333 333 329 324 331 326 321 327 318 345 330 315 324 320 305 303 311 310 307 306
175 170 162 149 128 105 92 71 35 360 340 340 338 339 341 341 338 337 336 330 326 324 320 320 320 320 317 317 320 316 322 311 325 305 322 310 310 319 310 303 300 302 307
177 168 162 151 140 121 99 82 44 12 343 336 331 331 330 329 327 323 319 319 317 314 310 311 313 310 308 306 308 295 283 290 298 301 291 297 295 293 294 299 298 299 299
171 169 163 155 147 134 113 81 37 2 341 330 326 322 324 324 320 318 317 316 313 312 309 307 307 305 301 298 297 299 290 287 283 281 295 294 292 291 292 295 298 294 293
171 170 165 160 153 143 127 95 32 356 336 323 319 320 322 318 316 315 316 316 313 311 309 307 305 300 297 293 288 286 284 285 288 286 285 290 292 292 288 287 289 290 289